STARLINK-2469

Last updated on Sat May 08 2021 00:02:04 GMT+0000 (Coordinated Universal Time)

1 48128U 21027AN 21127.58334491 .00060182 00000-0 43003-3 0 9995 2 48128 53.0476 191.7877 0002492 24.5819 258.7140 15.73200329 1770

Satellite not in orbit